Glenwood, MN

3:56 AM CDT on September 25, 2017 (GMT -0500)
Glenwood Municipal

Weather History for KGHW - January, 2014

Change the Weather History Date:

Monday, January 20, 2014

  Actual Average Record
Temperature  
Mean Temperature 5 °F -  
Max Temperature 26 °F 21 °F 42 °F (1964)
Min Temperature -18 °F 1 °F -34 °F (1970)
Degree Days  
Heating Degree Days 60    
Moisture  
Dew Point 2 °F    
Average Humidity 78    
Maximum Humidity 93    
Minimum Humidity 56    
Precipitation  
Precipitation 0.00 in - - ()
Sea Level Pressure  
Sea Level Pressure 30.09 in    
Wind  
Wind Speed 13 mph (NNW)    
Max Wind Speed 20 mph    
Max Gust Speed 26 mph    
Visibility 8 miles    
Events Snow    
Averages and records for this station are not official NWS values.
T = Trace of Precipitation, MM = Missing Value Source: NWS Daily Summary

Daily Weather History Graph

Daily Weather History Graph

Search for Another Location

Airport or City:

Trip Planner

Search our weather history database for the weather conditions in past years. The results will help you decide how hot, cold, wet, or windy it might be!

Date:

Astronomy

Jan. 20, 2014 Rise Set
Actual Time 7:54 AM CST 5:10 PM CST
Civil Twilight 7:21 AM CST 5:43 PM CST
Nautical Twilight 6:45 AM CST 6:19 PM CST
Astronomical Twilight 6:10 AM CST 6:55 PM CST
Moon 10:02 PM CST (1/20) 9:39 AM CST (1/20)
Length of Visible Light 10h 21m
Length of Day
9h 16m
Waning Gibbous, 82% of the Moon is Illuminated
Jan 20
Waning Gibbous
Jan 23
Last Quarter
Jan 30
New
Feb 6
First Quarter
Feb 14
Full

Hourly Weather History & Observations

Time (CST) Temp. Windchill Dew Point Humidity Pressure Visibility Wind Dir Wind Speed Gust Speed Precip Events Conditions
12:13 AM 26.6 °F 16.8 °F 24.8 °F 93% 29.71 in 10.0 mi West 10.4 mph - N/A   Overcast
12:33 AM 26.6 °F 17.5 °F 24.8 °F 93% 29.72 in 10.0 mi West 9.2 mph - N/A   Overcast
12:53 AM 24.8 °F 14.6 °F 23.0 °F 93% 29.72 in 10.0 mi West 10.4 mph - N/A   Overcast
1:14 AM 24.8 °F 14.0 °F 21.2 °F 86% 29.72 in 10.0 mi West 11.5 mph - N/A   Mostly Cloudy
1:33 AM 26.6 °F 14.3 °F 24.8 °F 93% 29.74 in 10.0 mi WNW 16.1 mph 19.6 mph N/A   Overcast
1:53 AM 26.6 °F 14.3 °F 24.8 °F 93% 29.75 in 10.0 mi WNW 16.1 mph - N/A   Overcast
2:14 AM 26.6 °F 13.1 °F 23.0 °F 86% 29.75 in 10.0 mi WNW 19.6 mph - N/A   Overcast
2:33 AM 24.8 °F 11.5 °F 23.0 °F 93% 29.75 in 10.0 mi NW 17.3 mph 21.9 mph N/A   Overcast
2:53 AM 24.8 °F 14.0 °F 23.0 °F 93% 29.77 in 10.0 mi WNW 11.5 mph - N/A   Overcast
3:13 AM 24.8 °F 12.9 °F 21.2 °F 86% 29.78 in 10.0 mi NW 13.8 mph 20.7 mph N/A   Overcast
3:33 AM 24.8 °F 14.0 °F 21.2 °F 86% 29.79 in 10.0 mi NNW 11.5 mph - N/A   Overcast
3:54 AM 23.0 °F 11.1 °F 19.4 °F 86% 29.79 in 10.0 mi WNW 12.7 mph 17.3 mph N/A   Overcast
4:13 AM 23.0 °F 10.6 °F 19.4 °F 86% 29.79 in 10.0 mi NW 13.8 mph - N/A   Overcast
4:33 AM 21.2 °F 10.1 °F 19.4 °F 93% 29.80 in 10.0 mi NW 10.4 mph - N/A   Overcast
4:54 AM 21.2 °F 9.5 °F 17.6 °F 86% 29.80 in 10.0 mi North 11.5 mph - N/A   Overcast
5:13 AM 19.4 °F 7.9 °F 17.6 °F 93% 29.82 in 10.0 mi NNW 10.4 mph - N/A   Overcast
5:34 AM 19.4 °F 8.6 °F 17.6 °F 93% 29.81 in 10.0 mi NNW 9.2 mph - N/A   Overcast
5:53 AM 19.4 °F 10.4 °F 17.6 °F 93% 29.82 in 10.0 mi NNW 6.9 mph - N/A   Overcast
6:13 AM 19.4 °F 10.4 °F 17.6 °F 93% 29.84 in 7.0 mi NNW 6.9 mph - N/A Snow Light Snow
6:34 AM 19.4 °F 10.4 °F 17.6 °F 93% 29.84 in 5.0 mi North 6.9 mph - N/A Snow Light Snow
6:53 AM 19.4 °F 9.5 °F 15.8 °F 86% 29.85 in 10.0 mi North 8.1 mph - N/A   Overcast
7:13 AM 17.6 °F 7.3 °F 15.8 °F 93% 29.86 in 7.0 mi North 8.1 mph - N/A Snow Light Snow
7:34 AM 17.6 °F 7.3 °F 15.8 °F 93% 29.87 in 7.0 mi North 8.1 mph - N/A Snow Light Snow
7:53 AM 17.6 °F 3.7 °F 14.0 °F 86% 29.88 in 7.0 mi NNE 13.8 mph - N/A   Overcast
8:13 AM 15.8 °F 2.1 °F 12.2 °F 86% 29.89 in 2.5 mi NNE 12.7 mph - N/A Snow Light Snow
8:33 AM 14.0 °F -1.4 °F 10.4 °F 86% 29.90 in 7.0 mi NNE 15.0 mph - N/A Snow Light Snow
8:53 AM 14.0 °F 1.2 °F 10.4 °F 86% 29.92 in 10.0 mi NNE 10.4 mph - N/A   Overcast
9:14 AM 12.2 °F -2.5 °F 8.6 °F 85% 29.94 in 7.0 mi NNE 12.7 mph 17.3 mph N/A   Overcast
9:33 AM 12.2 °F -4.3 °F 8.6 °F 85% 29.96 in 3.0 mi NNE 16.1 mph 19.6 mph N/A Snow Light Snow
9:53 AM 12.2 °F -3.1 °F 8.6 °F 85% 29.98 in 1.5 mi NNE 13.8 mph 20.7 mph N/A Snow Light Snow
10:13 AM 10.4 °F -7.2 °F 6.8 °F 85% 30.00 in 2.5 mi NNE 17.3 mph - N/A Snow Light Snow
10:33 AM 10.4 °F -7.7 °F 6.8 °F 85% 30.01 in 3.0 mi NNE 18.4 mph - N/A Snow Light Snow
10:54 AM 8.6 °F -10.5 °F 3.2 °F 79% 30.02 in 2.0 mi NNE 19.6 mph - N/A Snow Light Snow
11:13 AM 8.6 °F -9.5 °F 3.2 °F 79% 30.05 in 3.0 mi NNE 17.3 mph - N/A   Haze
11:33 AM 8.6 °F -9.5 °F 1.4 °F 73% 30.06 in 4.0 mi North 17.3 mph 24.2 mph N/A   Haze
11:53 AM 6.8 °F -12.9 °F 1.4 °F 79% 30.06 in 2.0 mi NNE 19.6 mph - N/A Snow Light Snow
12:13 PM 6.8 °F -12.9 °F 1.4 °F 79% 30.08 in 3.0 mi North 19.6 mph 26.5 mph N/A Snow Light Snow
12:33 PM 6.8 °F -11.3 °F -0.4 °F 72% 30.09 in 5.0 mi NNE 16.1 mph - N/A Snow Light Snow
12:53 PM 6.8 °F -12.4 °F -0.4 °F 72% 30.09 in 4.0 mi North 18.4 mph - N/A   Haze
1:13 PM 5.0 °F -14.2 °F -2.2 °F 72% 30.11 in 4.0 mi North 17.3 mph 24.2 mph N/A   Haze
1:34 PM 5.0 °F -14.7 °F -2.2 °F 72% 30.12 in 3.0 mi North 18.4 mph 24.2 mph N/A   Haze
1:53 PM 5.0 °F -13.0 °F -4.0 °F 66% 30.14 in 7.0 mi North 15.0 mph 23.0 mph N/A   Mostly Cloudy
2:13 PM 3.2 °F -17.1 °F -5.8 °F 66% 30.15 in 4.0 mi North 18.4 mph 25.3 mph N/A   Haze
2:33 PM 3.2 °F -15.9 °F -5.8 °F 66% 30.17 in 7.0 mi North 16.1 mph 24.2 mph N/A   Scattered Clouds
2:53 PM 3.2 °F -17.6 °F -7.6 °F 61% 30.19 in 7.0 mi North 19.6 mph 24.2 mph N/A   Clear
3:14 PM 3.2 °F -17.1 °F -7.6 °F 61% 30.22 in 7.0 mi North 18.4 mph 25.3 mph N/A   Mostly Cloudy
3:33 PM 3.2 °F -13.9 °F -7.6 °F 61% 30.24 in 10.0 mi North 12.7 mph - N/A   Mostly Cloudy
3:53 PM 3.2 °F -16.5 °F -7.6 °F 61% 30.25 in 10.0 mi North 17.3 mph 25.3 mph N/A   Mostly Cloudy
4:14 PM 3.2 °F -15.9 °F -9.4 °F 56% 30.27 in 10.0 mi North 16.1 mph 24.2 mph N/A   Scattered Clouds
4:33 PM 3.2 °F -15.9 °F -9.4 °F 56% 30.28 in 10.0 mi North 16.1 mph - N/A   Clear
4:54 PM 1.4 °F -15.3 °F -9.4 °F 61% 30.29 in 10.0 mi NNW 11.5 mph 20.7 mph N/A   Clear
5:13 PM -0.4 °F -19.9 °F -9.4 °F 66% 30.30 in 10.0 mi NNW 15.0 mph - N/A   Clear
5:33 PM -2.2 °F -22.9 °F -9.4 °F 71% 30.32 in 10.0 mi NNW 16.1 mph - N/A   Clear
5:53 PM -2.2 °F -23.5 °F -11.2 °F 66% 30.34 in 10.0 mi NNW 17.3 mph - N/A   Clear
6:13 PM -4.0 °F -25.2 °F -11.2 °F 71% 30.36 in 10.0 mi NNW 16.1 mph - N/A   Clear
6:34 PM -5.8 °F -27.5 °F -13.0 °F 71% 30.37 in 10.0 mi NNW 16.1 mph - N/A   Clear
6:53 PM -5.8 °F -27.5 °F -14.8 °F 65% 30.39 in 10.0 mi NNW 16.1 mph - N/A   Clear
7:13 PM -7.6 °F -28.3 °F -14.8 °F 71% 30.39 in 10.0 mi NNW 13.8 mph - N/A   Clear
7:34 PM -7.6 °F -29.8 °F -14.8 °F 71% 30.41 in 10.0 mi NNW 16.1 mph - N/A   Clear
7:53 PM -7.6 °F -28.3 °F -16.6 °F 65% 30.42 in 10.0 mi NW 13.8 mph - N/A   Clear
8:14 PM -9.4 °F -31.4 °F -16.6 °F 71% 30.43 in 10.0 mi NW 15.0 mph - N/A   Clear
8:33 PM -9.4 °F -30.6 °F -16.6 °F 71% 30.43 in 10.0 mi NW 13.8 mph - N/A   Clear
8:53 PM -11.2 °F -30.1 °F -18.4 °F 70% 30.44 in 10.0 mi NW 10.4 mph - N/A   Clear
9:14 PM -11.2 °F -32.1 °F -18.4 °F 70% 30.44 in 10.0 mi NNW 12.7 mph - N/A   Clear
9:33 PM -13.0 °F -32.4 °F -18.4 °F 77% 30.44 in 10.0 mi NNW 10.4 mph - N/A   Clear
9:53 PM -13.0 °F -31.3 °F -20.2 °F 70% 30.44 in 10.0 mi NNW 9.2 mph - N/A   Clear
10:14 PM -14.8 °F -32.2 °F -20.2 °F 77% 30.46 in 10.0 mi NW 8.1 mph - N/A   Clear
10:33 PM -16.6 °F -37.9 °F -22.0 °F 76% 30.46 in 10.0 mi WNW 11.5 mph - N/A   Clear
10:53 PM -14.8 °F -34.6 °F -22.0 °F 70% 30.47 in 10.0 mi WNW 10.4 mph - N/A   Clear
11:14 PM -16.6 °F -36.8 °F -23.8 °F 70% 30.47 in 10.0 mi WNW 10.4 mph - N/A   Clear
11:33 PM -16.6 °F -35.7 °F -23.8 °F 70% 30.47 in 10.0 mi WNW 9.2 mph - N/A   Clear
11:54 PM -18.4 °F -35.1 °F -25.6 °F 70% 30.47 in 10.0 mi West 6.9 mph - N/A   Clear